Benton Harbor, MI

1:46 AM EDT on March 27, 2017 (GMT -0400)
Southwest Michigan Regional

Weather History for KBEH - October, 2013

Change the Weather History Date:

Thursday, October 17, 2013

  Actual Average Record
Temperature  
Mean Temperature 50 °F -  
Max Temperature 52 °F 61 °F 84 °F (1963)
Min Temperature 48 °F 40 °F 24 °F (1982)
Degree Days  
Heating Degree Days 15    
Moisture  
Dew Point 48 °F    
Average Humidity 96    
Maximum Humidity 100    
Minimum Humidity 68    
Precipitation  
Precipitation 1.14 in - - ()
Sea Level Pressure  
Sea Level Pressure 29.85 in    
Wind  
Wind Speed 9 mph (SW)    
Max Wind Speed 20 mph    
Max Gust Speed 29 mph    
Visibility 4 miles    
Events Rain    
Averages and records for this station are not official NWS values.
T = Trace of Precipitation, MM = Missing Value Source: NWS Daily Summary

Daily Weather History Graph

Daily Weather History Graph

Search for Another Location

Airport or City:

Trip Planner

Search our weather history database for the weather conditions in past years. The results will help you decide how hot, cold, wet, or windy it might be!

Date:

Astronomy

Oct. 17, 2013 Rise Set
Actual Time 8:00 AM EDT 7:00 PM EDT
Civil Twilight 7:32 AM EDT 7:28 PM EDT
Nautical Twilight 7:00 AM EDT 8:01 PM EDT
Astronomical Twilight 6:27 AM EDT 8:33 PM EDT
Moon 6:14 PM EDT (10/17) 6:31 AM EDT (10/17)
Length of Visible Light 11h 56m
Length of Day
10h 59m
Waxing Gibbous, 98% of the Moon is Illuminated
Oct 17
Waxing Gibbous
Oct 18
Full
Oct 26
Last Quarter
Nov 3
New
Nov 10
First Quarter

Hourly Weather History & Observations

Time (EDT) Temp. Dew Point Humidity Pressure Visibility Wind Dir Wind Speed Gust Speed Precip Events Conditions
12:21 AM 51.8 °F 50.0 °F 94% 29.91 in 9.0 mi West 11.5 mph - 0.00 in   Overcast
12:33 AM 51.8 °F 50.0 °F 94% 29.91 in 7.0 mi WSW 9.2 mph - 0.00 in Rain Light Rain
12:53 AM 52.0 °F 50.0 °F 93% 29.91 in 9.0 mi West 11.5 mph - 0.01 in Rain Light Rain
1:53 AM 51.1 °F 50.0 °F 96% 29.90 in 9.0 mi WSW 8.1 mph - 0.02 in   Overcast
2:15 AM 50.0 °F 50.0 °F 100% 29.90 in 5.0 mi South 4.6 mph - 0.01 in   Overcast
2:48 AM 50.0 °F 48.2 °F 94% 29.90 in 2.5 mi SSE 5.8 mph - 0.03 in Rain Light Rain
2:53 AM 50.0 °F 48.9 °F 96% 29.90 in 3.0 mi South 5.8 mph - 0.03 in Rain Light Rain
2:57 AM 50.0 °F 48.2 °F 94% 29.89 in 3.0 mi South 5.8 mph - 0.01 in Rain Light Rain
3:01 AM 50.0 °F 48.2 °F 94% 29.89 in 2.5 mi South 6.9 mph - 0.02 in Rain Light Rain
3:23 AM 48.2 °F 48.2 °F 100% 29.89 in 5.0 mi South 3.5 mph - 0.04 in Rain Light Rain
3:42 AM 48.2 °F 48.2 °F 100% 29.89 in 2.5 mi South 6.9 mph - 0.08 in Rain Light Rain
3:51 AM 48.2 °F 48.2 °F 100% 29.89 in 5.0 mi South 8.1 mph - 0.08 in Rain Light Rain
3:53 AM 48.9 °F 48.9 °F 100% 29.89 in 4.0 mi South 4.6 mph - 0.08 in Rain Light Rain
4:12 AM 48.2 °F 48.2 °F 100% 29.88 in 2.0 mi SSW 3.5 mph - 0.04 in Rain Rain
4:27 AM 48.2 °F 48.2 °F 100% 29.88 in 3.0 mi South 8.1 mph - 0.04 in Rain Light Rain
4:38 AM 48.2 °F 48.2 °F 100% 29.88 in 2.5 mi South 5.8 mph - 0.06 in Rain Rain
4:53 AM 48.9 °F 48.9 °F 100% 29.88 in 2.5 mi SSW 5.8 mph - 0.08 in Rain Light Rain
5:16 AM 48.2 °F 48.2 °F 100% 29.88 in 1.8 mi SSW 6.9 mph - 0.03 in Rain Rain
5:27 AM 48.2 °F 48.2 °F 100% 29.87 in 2.0 mi South 5.8 mph - 0.04 in Rain Light Rain
5:35 AM 48.2 °F 48.2 °F 100% 29.87 in 2.5 mi SSW 5.8 mph - 0.05 in Rain Light Rain
5:46 AM 48.2 °F 48.2 °F 100% 29.88 in 1.5 mi South 5.8 mph - 0.09 in Rain Heavy Rain
5:51 AM 48.2 °F 48.2 °F 100% 29.87 in 1.5 mi South 4.6 mph - 0.10 in Rain Rain
5:53 AM 48.9 °F 48.9 °F 100% 29.88 in 1.5 mi South 4.6 mph - 0.11 in Rain Rain
6:12 AM 48.2 °F 48.2 °F 100% 29.87 in 2.0 mi SSW 3.5 mph - 0.03 in Rain Light Rain
6:28 AM 50.0 °F 50.0 °F 100% 29.87 in 5.0 mi SSW 4.6 mph - 0.04 in   Overcast
6:53 AM 50.0 °F 50.0 °F 100% 29.88 in 6.0 mi SSW 6.9 mph - 0.04 in   Overcast
7:53 AM 50.0 °F 50.0 °F 100% 29.85 in 5.0 mi Calm Calm - N/A   Overcast
8:53 AM 48.9 °F 48.9 °F 100% 29.86 in 4.0 mi South 6.9 mph - 0.01 in   Overcast
9:25 AM 48.2 °F 48.2 °F 100% 29.85 in 3.0 mi South 3.5 mph - 0.01 in Rain Light Rain
9:36 AM 48.2 °F 48.2 °F 100% 29.85 in 3.0 mi South 6.9 mph - 0.01 in   Overcast
9:45 AM 48.2 °F 48.2 °F 100% 29.85 in 2.5 mi South 6.9 mph - 0.02 in Rain Light Rain
9:53 AM 48.9 °F 48.9 °F 100% 29.86 in 3.0 mi South 5.8 mph - 0.02 in Rain Light Rain
10:00 AM 48.2 °F 48.2 °F 100% 29.85 in 3.0 mi South 5.8 mph - 0.00 in Rain Light Rain
10:19 AM 50.0 °F 50.0 °F 100% 29.84 in 2.5 mi SSW 5.8 mph - 0.02 in Rain Light Rain
10:28 AM 50.0 °F 48.2 °F 94% 29.84 in 3.0 mi South 6.9 mph - 0.02 in Rain Light Rain
10:50 AM 50.0 °F 50.0 °F 100% 29.84 in 2.5 mi SSW 9.2 mph - 0.04 in Rain Rain
10:53 AM 50.0 °F 48.9 °F 96% 29.85 in 2.5 mi SSW 11.5 mph - 0.04 in Rain Rain
11:04 AM 50.0 °F 48.2 °F 94% 29.84 in 3.0 mi SSW 8.1 mph - 0.01 in Rain Light Rain
11:33 AM 48.2 °F 48.2 °F 100% 29.84 in 2.5 mi SSW 11.5 mph - 0.03 in Rain Rain
11:53 AM 48.9 °F 48.0 °F 97% 29.85 in 2.5 mi SSW 10.4 mph - 0.06 in Rain Rain
12:09 PM 48.2 °F 48.2 °F 100% 29.84 in 3.0 mi SSW 10.4 mph - 0.01 in Rain Light Rain
12:53 PM 48.9 °F 48.0 °F 97% 29.83 in 4.0 mi SSW 10.4 mph - 0.04 in Rain Light Rain
1:02 PM 48.2 °F 48.2 °F 100% 29.82 in 5.0 mi SSW 9.2 mph 18.4 mph 0.01 in Rain Light Rain
1:09 PM 48.2 °F 48.2 °F 100% 29.82 in 3.0 mi SSW 11.5 mph 18.4 mph 0.01 in Rain Light Rain
1:30 PM 48.2 °F 48.2 °F 100% 29.81 in 3.0 mi SSW 6.9 mph - 0.04 in Rain Rain
1:40 PM 48.2 °F 48.2 °F 100% 29.81 in 2.5 mi SSW 9.2 mph - 0.06 in Rain Rain
1:47 PM 48.2 °F 48.2 °F 100% 29.81 in 3.0 mi SSW 8.1 mph - 0.07 in Rain Rain
1:53 PM 50.0 °F 48.9 °F 96% 29.81 in 5.0 mi SSW 9.2 mph - 0.07 in Rain Light Rain
2:01 PM 50.0 °F 48.2 °F 94% 29.80 in 3.0 mi WSW 11.5 mph - 0.02 in Rain Rain
2:09 PM 50.0 °F 48.2 °F 94% 29.80 in 2.0 mi WSW 13.8 mph 23.0 mph 0.05 in Rain Rain
2:28 PM 48.2 °F 48.2 °F 100% 29.80 in 1.2 mi WSW 19.6 mph 28.8 mph 0.15 in Rain Heavy Rain
2:41 PM 48.2 °F 48.2 °F 100% 29.80 in 2.0 mi WSW 18.4 mph - 0.22 in Rain Rain
2:47 PM 48.2 °F 48.2 °F 100% 29.80 in 1.2 mi West 15.0 mph - 0.27 in Rain Heavy Rain
2:48 PM 48.9 °F 48.0 °F 97% 29.81 in 1.2 mi West 15.0 mph 24.2 mph 0.27 in Rain Heavy Rain
2:56 PM 48.2 °F 48.2 °F 100% 29.80 in 1.8 mi WSW 19.6 mph 26.5 mph 0.03 in Rain Rain
2:58 PM 48.2 °F 48.2 °F 100% 29.80 in 2.0 mi WSW 15.0 mph 26.5 mph 0.03 in Rain Rain
3:04 PM 48.2 °F 48.2 °F 100% 29.80 in 3.0 mi WSW 15.0 mph 25.3 mph 0.05 in Rain Rain
3:13 PM 50.0 °F 48.2 °F 94% 29.80 in 2.0 mi West 10.4 mph - 0.10 in Rain Rain
3:16 PM 48.2 °F 48.2 °F 100% 29.80 in 1.2 mi West 11.5 mph - 0.12 in Rain Heavy Rain
3:18 PM 48.2 °F 48.2 °F 100% 29.80 in 1.0 mi West 12.7 mph - 0.14 in Rain Heavy Rain
3:26 PM 50.0 °F 48.2 °F 94% 29.80 in 2.0 mi West 13.8 mph - 0.15 in Rain Light Rain
3:28 PM 50.0 °F 48.2 °F 94% 29.80 in 3.0 mi West 13.8 mph - 0.16 in Rain Rain
3:37 PM 50.0 °F 48.2 °F 94% 29.80 in 2.5 mi West 13.8 mph - 0.18 in Rain Rain
3:39 PM 50.0 °F 48.2 °F 94% 29.80 in 3.0 mi West 12.7 mph - 0.18 in Rain Light Rain
4:43 PM 50.0 °F 48.2 °F 94% 29.80 in 5.0 mi West 12.7 mph - 0.23 in Rain Rain
4:53 PM 50.0 °F 48.0 °F 93% 29.81 in 6.0 mi West 11.5 mph 20.7 mph 0.23 in Rain Light Rain
5:53 PM 48.9 °F 46.9 °F 93% 29.81 in 4.0 mi WNW 8.1 mph - 0.02 in Rain Light Rain
6:53 PM 50.0 °F 46.0 °F 86% 29.83 in 10.0 mi WNW 8.1 mph 16.1 mph 0.01 in   Overcast
7:26 PM 50.0 °F 44.6 °F 82% 29.83 in 10.0 mi West 12.7 mph 20.7 mph N/A   Overcast
7:53 PM 50.0 °F 46.0 °F 86% 29.85 in 10.0 mi West 12.7 mph 21.9 mph N/A   Overcast
8:20 PM 51.8 °F 46.4 °F 82% 29.85 in 10.0 mi West 15.0 mph 19.6 mph N/A   Overcast
8:32 PM 51.8 °F 46.4 °F 82% 29.85 in 10.0 mi West 11.5 mph 23.0 mph N/A   Overcast
8:53 PM 51.1 °F 45.0 °F 80% 29.86 in 10.0 mi West 16.1 mph - N/A   Overcast
9:03 PM 51.8 °F 44.6 °F 76% 29.85 in 10.0 mi WNW 12.7 mph - 0.00 in Rain Light Rain
9:53 PM 50.0 °F 44.1 °F 80% 29.87 in 10.0 mi West 13.8 mph - 0.00 in   Overcast
10:53 PM 50.0 °F 39.9 °F 68% 29.88 in 10.0 mi WNW 9.2 mph - N/A   Partly Cloudy
11:53 PM 48.0 °F 39.9 °F 74% 29.87 in 10.0 mi West 4.6 mph - N/A   Clear